FW7254 Weather Reports


time (UTC)temp
F
wind
direction
speed
knots
gust
knots
rain 1hr
in
rain 24hr
in
rain mn
in
humidity
%
barometer
mb
20260505153318 60 184 0.0 0.0 0.00 0.00 0.00 65 1021.8
20260505151846 60 183 0.0 0.0 0.00 0.00 0.00 66 1022.1
20260505150331 60 184 0.0 0.0 0.00 0.00 0.00 67 1022.2
20260505140327 61 184 0.0 0.0 0.00 0.00 0.00 70 1022.3
20260505124835 61 105 0.0 0.0 0.00 0.00 0.00 65 1022.0
20260505123322 61 107 0.9 0.0 0.00 0.00 0.00 64 1022.1
20260505121829 61 105 1.7 0.0 0.00 0.00 0.00 64 1021.9
20260505120334 62 107 0.9 0.0 0.00 0.00 0.00 64 1022.0
20260505114815 62 107 0.9 0.0 0.00 0.00 0.00 64 1021.9
20260505113320 62 106 1.7 0.0 0.00 0.00 0.00 64 1021.8
20260505111827 62 114 2.6 0.0 0.00 0.00 0.00 63 1021.7
20260505110325 62 118 2.6 0.0 0.00 0.00 0.00 61 1021.5
20260505101825 62 92 0.9 0.0 0.00 0.00 0.00 56 1021.1
20260505100352 62 114 0.9 0.0 0.00 0.00 0.00 55 1021.0
20260505094837 63 117 0.0 0.0 0.00 0.00 0.00 54 1020.7
20260505093321 63 121 0.9 0.0 0.00 0.00 0.00 51 1020.7
20260505091826 63 119 0.9 0.0 0.00 0.00 0.00 47 1020.6
20260505090312 64 98 0.9 0.0 0.00 0.00 0.00 51 1020.3
20260505084820 65 108 1.7 0.0 0.00 0.00 0.00 49 1020.2
20260505083326 66 102 0.9 0.0 0.00 0.00 0.00 52 1020.0
20260505081835 66 263 0.9 0.0 0.00 0.00 0.00 50 1019.8
20260505080314 67 140 1.7 0.0 0.00 0.00 0.00 51 1019.8
20260505074826 68 107 1.7 0.0 0.00 0.00 0.00 49 1019.7
20260505073324 68 109 0.9 0.0 0.00 0.00 0.00 47 1019.5
20260505071831 69 175 1.7 0.0 0.00 0.00 0.00 43 1019.5
20260505070336 69 120 0.9 0.0 0.00 0.00 0.00 41 1019.3
20260505064822 70 128 0.9 0.0 0.00 0.00 0.00 43 1019.2
20260505063321 71 137 1.7 0.0 0.00 0.00 0.00 41 1019.1
20260505061836 72 221 0.9 0.0 0.00 0.00 0.00 41 1019.0
20260505060315 72 281 0.9 0.0 0.00 0.00 0.00 39 1018.6
20260505054825 72 102 0.9 0.0 0.00 0.00 0.00 35 1018.5
20260505053331 72 109 2.6 0.0 0.00 0.00 0.00 30 1018.5
20260505051840 72 113 4.3 0.0 0.00 0.00 0.00 31 1018.5
20260505050317 73 110 3.5 0.0 0.00 0.00 0.00 28 1018.6
20260505040326 74 106 0.0 0.0 0.00 0.00 0.00 22 1018.9
20260505034855 73 94 0.0 0.0 0.00 0.00 0.00 26 1018.7
20260505033318 73 94 0.0 0.0 0.00 0.00 0.00 27 1018.8
20260505031820 73 30 0.0 0.0 0.00 0.00 0.00 26 1018.7
20260505030324 72 30 0.0 0.0 0.00 0.00 0.00 26 1018.7
20260505024833 72 29 0.0 0.0 0.00 0.00 0.00 30 1018.9
20260505023312 71 37 0.0 0.0 0.00 0.00 0.00 29 1018.9
20260505021821 71 38 0.0 0.0 0.00 0.00 0.00 29 1018.8
20260505020327 70 103 0.0 0.0 0.00 0.00 0.00 26 1018.9
20260505014836 70 360 0.9 0.0 0.00 0.00 0.00 29 1018.8
20260505013314 69 355 0.0 0.0 0.00 0.00 0.00 32 1018.8
20260505011823 69 355 0.0 0.0 0.00 0.00 0.00 30 1018.8
20260505010330 68 355 0.0 0.0 0.00 0.00 0.00 31 1018.8
20260505004838 67 360 0.9 0.0 0.00 0.00 0.00 30 1018.7
20260505003315 67 360 0.9 0.0 0.00 0.00 0.00 33 1018.7
20260505001817 66 9 0.0 0.0 0.00 0.00 0.00 35 1018.6
20260505000323 65 360 0.9 0.0 0.00 0.00 0.00 35 1018.5
20260504234851 64 355 1.7 0.0 0.00 0.00 0.00 34 1018.5
20260504233316 63 360 1.7 0.0 0.00 0.00 0.00 33 1018.8
20260504231820 62 360 2.6 0.0 0.00 0.00 0.00 34 1018.7
20260504230319 62 5 1.7 0.0 0.00 0.00 0.00 37 1018.7
20260504224824 61 5 2.6 0.0 0.00 0.00 0.00 37 1018.5
20260504223327 61 355 3.5 0.0 0.00 0.00 0.00 38 1018.2
20260504221816 60 10 1.7 0.0 0.00 0.00 0.00 39 1018.0
20260504220321 59 34 0.9 0.0 0.00 0.00 0.00 42 1018.0
20260504214830 58 36 1.7 0.0 0.00 0.00 0.00 43 1017.9
20260504213332 58 5 0.9 0.0 0.00 0.00 0.00 43 1017.7
20260504211839 58 355 0.9 0.0 0.00 0.00 0.00 43 1017.4
20260504210317 57 360 0.9 0.0 0.00 0.00 0.00 44 1017.1
20260504204825 57 5 0.9 0.0 0.00 0.00 0.00 44 1016.7
20260504203312 57 360 0.9 0.0 0.00 0.00 0.00 43 1016.2
20260504201813 57 5 2.6 0.0 0.00 0.00 0.00 44 1015.9
20260504200324 57 360 1.7 0.0 0.00 0.00 0.00 43 1015.5
20260504194831 57 355 2.6 0.0 0.00 0.00 0.00 43 1015.1
20260504193311 58 5 2.6 0.0 0.00 0.00 0.00 43 1014.5
20260504191818 58 360 1.7 0.0 0.00 0.00 0.00 43 1013.9
20260504190323 57 5 2.6 0.0 0.00 0.00 0.00 46 1013.9
20260504184836 57 15 2.6 0.0 0.00 0.00 0.00 48 1013.6
20260504183336 56 360 3.5 0.0 0.00 0.00 0.00 52 1013.3
20260504181823 56 355 1.7 0.0 0.00 0.00 0.00 53 1013.1
20260504180349 57 5 0.9 0.0 0.00 0.00 0.00 52 1012.8
20260504174812 57 5 3.5 0.0 0.00 0.00 0.00 51 1012.3
20260504173318 56 342 4.3 0.0 0.00 0.00 0.00 51 1011.8
20260504171826 56 241 2.6 0.0 0.00 0.00 0.00 52 1011.4
20260504170332 56 355 2.6 0.0 0.00 0.00 0.00 52 1011.3
20260504160334 58 360 2.6 0.0 0.00 0.00 0.00 51 1009.6